Regional Weather Roundup
Issued by NWS Northern Indiana

Home | Current Version | Previous Version | Graphics & Text | Print | Product List | Glossary On
Versions: 1 2 3 4 5 6 7 8 9 10 11 12 13 14 15 16 17 18 19 20 21 22 23 24 25 26 27 28 29 30 31 32 33 34 35 36 37 38 39 40 41 42 43 44 45 46 47 48 49 50
000
ASUS43 KIWX 280310
RWRIWX

KIWX WEATHER ROUNDUP
NATIONAL WEATHER SERVICE NORTHERN INDIANA
1100 PM EDT THU JUL 27 2017

NOTE: "FAIR" INDICATES FEW OR NO CLOUDS BELOW 12,000 FEET WITH NO
SIGNIFICANT WEATHER AND/OR OBSTRUCTIONS TO VISIBILITY.

* THESE STATIONS ARE NOT UNDER NWS QUALITY CONTROL. THEY ALSO MAY NOT
  REPORT WEATHER SUCH AS PRECIPITATION OR FOG.

INZ001>027-280400-
NORTHERN INDIANA

CITY           SKY/WX    TMP DP  RH WIND       PRES   REMARKS
GARY*          PTCLDY    72  64  78 N12       29.93S
VALPARAISO     PTCLDY    72  67  84 N7        29.92S
MICHIGAN CITY* MOCLDY    70  68  94 N6        29.92F
LAPORTE*       PTCLDY    70  66  87 N8        29.92S
KNOX*          MOCLDY    68  66  94 N5        29.90F
SOUTH BEND     PTCLDY    71  66  84 N7        29.92R
GOSHEN         MOCLDY    77  66  68 NE8       29.90R
MONTICELLO*    CLOUDY    72  69  90 N7        29.89S
LOGANSPORT*    CLOUDY    72  70  94 N6        29.89F
ROCHESTER*     MOCLDY    75  70  83 N5        29.89F
WARSAW*        PTCLDY    72  70  94 N3        29.89S
AUBURN*        PTCLDY    72  70  94 CALM      29.91S FOG
FORT WAYNE     MOCLDY    74  69  85 E6        29.90S
HUNTINGTON*    PTCLDY    73  72  95 CALM      29.89S
PERU/GRISSOM   PTCLDY    76  73  92 N5        29.88S
MARION*        MOCLDY    73  72  94 CALM      29.89S

$$
INZ028>050-280400-
CENTRAL INDIANA

CITY           SKY/WX    TMP DP  RH WIND       PRES   REMARKS
LAFAYETTE      CLOUDY    73  69  87 N8        29.88S
KOKOMO*        MOCLDY    75  72  90 N7        29.90R
MUNCIE*        CLOUDY    75  72  90 CALM      29.89S
INDIANAPOLIS   MOCLDY    74  73  97 S3        29.87F

$$
MIZ043>046-050>051-056>058-064>065-071>073-077>080-280400-
SOUTHWEST LOWER MICHIGAN

CITY           SKY/WX    TMP DP  RH WIND       PRES   REMARKS
BATTLE CREEK   CLOUDY    73  61  65 NE8       29.95R
BENTON HARBOR  PTCLDY    70  65  84 CALM      29.92R
COLDWATER*     CLOUDY    74  66  75 E7        29.93S
HILLSDALE*     CLOUDY    72  63  73 E5        29.94R
HOLLAND        PTCLDY    73  62  68 N3        29.95R
GRAND RAPIDS   PTCLDY    70  62  76 E6        29.95R
KALAMAZOO      PTCLDY    74  61  63 NE5       29.93S
STURGIS*       MOCLDY    74  67  78 NE10      29.91S
THREE RIVERS*  MOCLDY    75  65  70 NE5       29.92S

$$
OHZ001>008-015>018-024>025-280400-
NORTHWEST OHIO

CITY           SKY/WX    TMP DP  RH WIND       PRES   REMARKS
WAUSEON*       CLOUDY    72  66  83 NE6       29.92R
DEFIANCE       CLEAR     72  66  81 E3        29.90S
FINDLAY        MOCLDY    75  67  76 NE6       29.89S
TOLEDO EXPRESS CLEAR     72  67  84 NE8       29.91R
TOLEDO METCALF PTCLDY    74  69  85 NE7       29.92R
LIMA           CLOUDY    72  72 100 CALM      29.90R

$$
AND FOR LAKE MICHIGAN COASTAL AND OPEN LAKE BUOY OBSERVATIONS

STATION/POSITION TEMP    WIND        PRES    VSBY  WAVE
                 AIR SEA DIR/SP/G                  HT/PER
                 (F)     (DEG/KT/KT) (MB)    (MI)  (FT/S)
CALUMET HARBOR    71     330/  9/ 12 1013.2S
MICHIGAN CITY     73      20/ 14/ 16   N/A
BURNS HARBOR      73      30/ 12/ 15 1013.9R
SAINT JOSEPH      71      30/  2/  5 1013.5
SOUTH LAKE BUOY   72 71   20/ 17/ 21 1013.2R         5/ 6
4 MI NW BRIDGMAN  71 72   50/ 10/ 14 1012.8          5/ 6
MICHIGAN CITY     74 74   30/ 14/ 19   N/A           6/ 6

$$
&&




USA.gov is the U.S. government's official web portal to all federal, state and local government web resources and services.